Regional Weather Roundup
Issued by NWS State College, PA

Home | Current Version | Previous Version | Text Only | Print | Product List | Glossary Off
Versions: 1 2 3 4 5 6 7 8 9 10 11 12 13 14 15 16 17 18 19 20 21 22 23 24 25 26 27 28 29 30 31 32 33 34 35 36 37 38 39 40 41 42 43 44 45 46 47 48 49 50

464
ASUS41 KCTP 052103
RWRCTP

REGIONAL WEATHER ROUNDUP
NATIONAL WEATHER SERVICE STATE COLLEGE PA
400 PM EST FRI FEB 05 2016

Note: "fair" indicates few or no clouds below 12,000 feet with no
significant weather and/or obstructions to visibility.

* = STATION THAT DOES NOT REPORT PRECIPITATION /E.G. RAIN...SNOW...ETC/
    THUNDER OR FOG.

PAZ002>004-007>009-013>016-020>023-029>032-052200-
WESTERN PENNSYLVANIA

CITY           SKY/WX    TMP DP  RH WIND       PRES   REMARKS
ERIE           SUNNY     32  20  61 W10       30.34S
MEADVILLE      SUNNY     32  15  49 W7        30.30S
FRANKLIN*      CLOUDY    28  16  59 NW7       30.33R
NEW CASTLE     MOCLDY    33  17  51 W6        30.34R
BEAVER COUNTY  CLOUDY    36  19  51 NW3       30.33R
BUTLER*        MOSUNNY   30  16  55 W7        30.36S
PITTSBURGH INT MOSUNNY   36  16  44 NW13      30.33R
PITTSBURGH     MOSUNNY   36  15  42 W9        30.31S
INDIANA*       PTSUNNY   32  18  55 NW10      30.34R
LATROBE        MOSUNNY   32  16  51 NW8       30.33R
WASHINGTON CO* PTSUNNY   36  16  44 W5        30.34R
$$

PAZ004>006-010>012-017>019-024>028-033>037-041-042-045-046-049>053-052200-
CENTRAL PENNSYLVANIA

CITY           SKY/WX    TMP DP  RH WIND       PRES   REMARKS
BRADFORD       CLOUDY    25  14  63 W8        30.24R
DUBOIS         MOSUNNY   30  14  51 W8        30.26R
CLEARFIELD     SUNNY     32  15  49 W12       30.27R
JOHNSTOWN      MOSUNNY   29  13  51 NW15      30.24R
ALTOONA        SUNNY     33  14  45 NW16      30.27R
STATE COLLEGE  MOSUNNY   34  16  47 NW10G22   30.26R
WILLIAMSPORT   PTSUNNY   40  15  36 NW14G21   30.24R
SELINSGROVE    CLOUDY    37  23  56 W13G25    30.27R
FT INDIANTOWN  SUNNY     38  22  53 NW8G18    30.24R
CAPITAL CITY   PTSUNNY   40  17  39 W18G24    30.26R
HARRISBURG     PTSUNNY   39  21  48 NW16      30.26R
YORK           MOSUNNY   39  19  44 W15       30.26R
$$

PAZ038>040-043-044-047-048-054-055-060>062-067>071-052200-
EASTERN PENNSYLVANIA

CITY           SKY/WX    TMP DP  RH WIND       PRES   REMARKS
SCRANTON       PTSUNNY   33  16  49 NW14      30.21R
MOUNT POCONO   MOSUNNY   29  12  49 NW14G36   30.12R
ALLENTOWN      MOSUNNY   39  17  41 NW12G22   30.21R
QUAKERTOWN*    PTCLDY    39  18  41 NW12G23   30.20R
READING        SUNNY     40  18  41 NW17G28   30.22R
LANCASTER      CLOUDY    38  25  59 W20       30.24R
COATESVILLE    PTCLDY    37  23  56 NW17      30.22R
POTTSTOWN      SUNNY     39  17  41 NW15G23   30.22R
BLUE BELL        N/A     37  19  48 W9G18     30.20R
DOYLESTOWN     CLOUDY    39  19  44 NW10G22   30.18R
WILLOW GROVE   NOT AVBL
NORTH PHILA    PTSUNNY   43  20  39 NW15G26   30.21R
PHILADELPHIA   PTSUNNY   42  19  39 NW17G25   30.21R
$$




USA.gov is the U.S. government's official web portal to all federal, state and local government web resources and services.